Temp
8 8 8 8 8 9 9 9 9 9 8 8 8 8 8 8 8 7 7 7 7 6 6 6 5 5 4 4 3 2 2 1 1 1 1 1 0 -0 -1 -1 -1 -2 -2 -2
8 8 8 8 8 9 9 9 8 8 8 8 7 8 7 7 7 7 7 7 6 6 6 6 5 5 4 4 3 3 2 1 1 1 -0 -1 -2 -1 -1 -1 -1 -2 -2 -2
8 8 8 8 8 8 8 8 8 8 7 7 7 6 6 6 6 6 6 6 5 5 5 5 5 4 4 3 3 2 2 1 1 -0 -1 -1 -1 -1 -1 -1 -1 -1 -1 -1
8 8 7 8 8 8 8 7 7 8 8 6 6 3 3 5 5 4 4 4 4 4 5 5 4 4 4 3 2 1 1 0 -0 -1 -1 -1 -1 -1 -1 -1 -1 -1 -1 -2
7 7 7 8 7 7 7 7 7 7 7 6 6 6 3 3 3 4 4 3 4 4 4 5 4 3 3 3 2 1 1 0 -0 -0 -0 -0 -0 -1 -1 -1 -1 -1 -2 -3
8 7 7 7 7 7 7 6 6 6 6 4 6 5 3 5 5 4 4 4 4 4 3 3 2 2 2 2 1 0 -0 -0 -0 -1 -1 -1 -2 -2 -2 -2 -3 -3 -4 -4
6 6 6 6 6 6 6 7 6 4 1 1 5 4 6 5 5 4 4 3 3 3 3 3 3 2 2 1 1 0 -0 -1 -1 -2 -2 -2 -2 -3 -3 -3 -4 -4 -5 -6
6 5 6 6 6 6 6 6 6 3 -2 2 4 4 5 6 4 3 3 2 3 2 3 3 3 2 1 1 -0 -1 -1 -1 -2 -2 -2 -2 -3 -3 -4 -4 -5 -5 -6 -6
6 5 6 6 6 6 6 6 6 5 3 2 3 3 4 4 3 3 3 3 3 3 3 2 2 2 1 0 -1 -2 -2 -3 -3 -2 -2 -2 -3 -3 -3 -4 -5 -6 -7 -7
6 6 5 5 6 6 6 6 6 6 1 -0 1 2 4 4 4 3 3 3 3 2 2 2 2 1 1 -0 -1 -2 -2 -3 -3 -3 -3 -3 -3 -4 -5 -6 -6 -7 -7 -8
6 6 5 5 5 5 5 6 6 5 4 -2 -4 2 4 4 4 4 4 3 2 2 2 1 1 0 -0 -1 -2 -2 -3 -3 -4 -3 -4 -4 -5 -6 -6 -7 -7 -7 -8 -9
6 6 5 5 5 5 5 5 5 5 3 3 2 4 4 4 3 3 3 2 2 2 2 1 0 -0 -2 -2 -3 -4 -4 -4 -4 -4 -5 -6 -6 -7 -7 -8 -8 -8 -9 -10
5 5 5 5 5 5 5 5 5 5 4 3 -0 4 4 4 3 3 2 2 2 2 1 1 -0 -2 -2 -3 -3 -4 -4 -5 -5 -6 -6 -6 -7 -7 -8 -8 -8 -9 -10 -11
5 6 6 6 6 6 5 5 5 4 3 3 4 4 4 3 3 3 2 2 2 1 0 -0 -1 -2 -3 -3 -4 -5 -5 -5 -6 -6 -6 -7 -7 -8 -8 -9 -9 -10 -11 -12
5 5 5 6 6 5 5 5 4 4 4 3 4 4 3 3 2 2 2 1 1 0 -1 -1 -2 -2 -2 -3 -5 -5 -5 -5 -6 -6 -7 -7 -8 -8 -9 -10 -11 -11 -12 -12
5 5 6 5 5 5 5 5 5 4 4 3 3 4 3 3 2 2 2 1 0 -1 -1 -2 -3 -3 -3 -4 -5 -5 -5 -6 -6 -7 -8 -8 -9 -9 -10 -11 -11 -12 -13 -13
5 5 5 4 5 4 4 6 6 6 5 5 4 4 3 3 2 2 1 1 -0 -1 -2 -2 -3 -3 -4 -4 -5 -5 -6 -7 -7 -8 -9 -9 -10 -10 -11 -12 -12 -13 -13 -14
5 5 4 4 4 -2 6 6 6 5 5 5 4 3 3 2 1 1 0 -0 -1 -1 -2 -2 -3 -4 -4 -5 -6 -6 -7 -8 -8 -9 -9 -10 -11 -11 -12 -12 -13 -13 -14 -14
4 4 4 4 3 4 5 5 5 5 5 4 3 2 2 1 1 1 -0 -1 -2 -2 -3 -3 -4 -5 -6 -6 -6 -7 -8 -9 -9 -9 -10 -11 -11 -11 -12 -13 -13 -14 -14 -15
4 3 3 3 2 -4 5 5 4 4 3 4 3 2 2 1 0 0 -1 -2 -2 -3 -4 -4 -5 -6 -6 -7 -7 -8 -9 -9 -9 -10 -10 -11 -12 -12 -12 -13 -14 -14 -15 -15
4 3 2 2 2 3 4 4 3 2 3 2 2 2 1 0 -0 -1 -2 -3 -3 -3 -4 -5 -6 -7 -7 -8 -8 -9 -9 -9 -9 -10 -11 -12 -12 -12 -13 -14 -14 -15 -15 -16
3 3 3 2 1 1 3 3 2 2 2 1 1 0 -0 -1 -1 -2 -3 -3 -3 -4 -5 -6 -7 -7 -8 -8 -9 -9 -9 -9 -10 -11 -12 -12 -12 -13 -13 -14 -15 -15 -16 -16
2 3 3 2 3 3 2 2 1 1 0 0 -1 -1 -1 -1 -2 -3 -3 -3 -4 -5 -6 -7 -8 -8 -8 -9 -9 -9 -9 -9 -10 -11 -12 -12 -13 -13 -14 -15 -15 -16 -16 -16
2 2 2 2 2 1 1 0 0 -0 -1 -1 -1 -1 -2 -2 -3 -3 -3 -4 -4 -6 -6 -8 -8 -8 -9 -9 -9 -9 -10 -10 -11 -12 -13 -13 -13 -14 -14 -15 -16 -16 -16 -16
1 1 1 1 1 0 0 0 -0 -0 -0 -1 -1 -2 -2 -3 -3 -4 -4 -4 -5 -6 -7 -8 -8 -9 -9 -9 -10 -10 -10 -11 -12 -13 -13 -13 -13 -14 -15 -15 -16 -16 -16 -16
1 1 0 0 0 -0 -0 -0 -0 -1 -1 -1 -2 -2 -3 -3 -4 -4 -4 -5 -6 -7 -9 -9 -9 -9 -9 -10 -10 -10 -11 -12 -12 -13 -13 -13 -14 -14 -15 -16 -16 -16 -16 -16
Height
3131 3133 3135 3137 3138 3139 3139 3141 3142 3144 3147 3148 3150 3152 3154 3155 3156 3158 3159 3160 3161 3162 3163 3164 3165 3167 3167 3166 3166 3167 3165 3163 3162 3160 3159 3158 3158 3158 3156 3154 3151 3147 3144 3142
3132 3132 3135 3136 3137 3138 3138 3138 3138 3140 3144 3147 3148 3151 3152 3154 3155 3157 3158 3159 3160 3161 3162 3163 3163 3164 3163 3164 3165 3164 3162 3161 3160 3158 3157 3157 3155 3154 3151 3148 3145 3141 3138 3134
3131 3134 3134 3135 3136 3138 3138 3139 3139 3138 3142 3146 3148 3150 3151 3153 3154 3154 3155 3157 3159 3160 3161 3162 3163 3163 3163 3163 3162 3161 3160 3158 3156 3156 3155 3154 3152 3149 3146 3142 3138 3134 3131 3127
3132 3133 3134 3134 3135 3138 3139 3140 3141 3140 3141 3145 3148 3152 3151 3152 3152 3153 3155 3156 3158 3159 3160 3160 3162 3162 3161 3160 3159 3157 3157 3157 3157 3156 3153 3151 3148 3144 3140 3135 3130 3125 3120 3115
3132 3133 3134 3134 3136 3138 3140 3140 3142 3143 3143 3144 3147 3148 3149 3151 3152 3152 3153 3155 3156 3157 3158 3158 3159 3161 3161 3160 3158 3157 3156 3155 3153 3151 3148 3144 3140 3135 3130 3126 3121 3115 3110 3104
3130 3132 3133 3135 3136 3138 3139 3140 3142 3142 3143 3145 3144 3146 3146 3145 3147 3149 3152 3153 3154 3155 3155 3156 3156 3157 3159 3158 3156 3154 3152 3150 3148 3145 3140 3136 3131 3126 3121 3116 3110 3104 3099 3094
3131 3132 3134 3135 3136 3137 3138 3139 3141 3145 3146 3144 3141 3143 3141 3143 3145 3149 3151 3152 3151 3151 3153 3153 3154 3154 3154 3154 3151 3149 3146 3143 3141 3136 3132 3127 3122 3117 3111 3105 3099 3093 3087 3082
3131 3134 3133 3134 3135 3136 3136 3138 3138 3144 3146 3140 3141 3140 3138 3138 3142 3148 3150 3149 3148 3149 3151 3151 3152 3151 3151 3149 3145 3142 3140 3137 3133 3128 3123 3117 3111 3107 3101 3096 3090 3084 3077 3071
3130 3131 3132 3132 3134 3136 3135 3136 3137 3136 3139 3140 3139 3137 3136 3135 3139 3143 3145 3146 3146 3147 3147 3147 3148 3147 3145 3142 3140 3138 3135 3132 3128 3123 3118 3112 3106 3100 3094 3089 3082 3075 3069 3062
3128 3130 3131 3132 3134 3135 3135 3136 3136 3135 3140 3142 3136 3135 3132 3132 3135 3139 3140 3142 3143 3143 3144 3144 3143 3141 3140 3138 3135 3131 3129 3126 3122 3117 3111 3105 3098 3091 3085 3079 3073 3067 3060 3053
3127 3129 3132 3133 3133 3133 3135 3134 3134 3135 3135 3136 3140 3131 3129 3131 3133 3135 3137 3138 3139 3140 3140 3138 3137 3135 3134 3131 3128 3125 3122 3118 3113 3106 3100 3093 3087 3081 3076 3070 3064 3056 3049 3042
3126 3127 3129 3132 3132 3133 3133 3133 3133 3133 3135 3134 3134 3130 3127 3129 3130 3132 3133 3135 3136 3135 3134 3133 3132 3130 3128 3124 3122 3119 3114 3108 3104 3098 3090 3083 3078 3072 3066 3059 3053 3046 3039 3033
3125 3126 3128 3130 3133 3131 3131 3131 3132 3132 3132 3131 3133 3127 3125 3126 3127 3129 3130 3131 3130 3130 3129 3128 3127 3126 3122 3119 3114 3110 3106 3101 3095 3088 3081 3076 3070 3064 3057 3051 3044 3038 3030 3023
3123 3123 3124 3125 3125 3127 3128 3128 3129 3130 3130 3128 3126 3124 3124 3124 3125 3126 3126 3126 3126 3125 3124 3124 3122 3120 3117 3112 3107 3102 3099 3094 3087 3081 3075 3069 3062 3056 3049 3043 3035 3028 3021 3015
3121 3122 3123 3123 3124 3125 3125 3126 3126 3125 3126 3126 3122 3120 3122 3122 3122 3122 3123 3122 3121 3120 3119 3119 3117 3114 3109 3104 3099 3096 3092 3086 3081 3075 3068 3062 3055 3049 3041 3034 3026 3019 3014 3010
3119 3120 3120 3121 3122 3122 3122 3122 3122 3121 3120 3118 3118 3116 3118 3118 3117 3117 3117 3116 3115 3115 3114 3113 3109 3107 3101 3097 3094 3089 3085 3080 3075 3068 3062 3055 3047 3040 3032 3025 3019 3012 3007 3002
3116 3117 3118 3119 3119 3119 3119 3117 3117 3116 3114 3115 3113 3115 3113 3113 3113 3112 3112 3111 3111 3110 3109 3107 3103 3099 3095 3091 3086 3083 3079 3073 3067 3060 3053 3045 3038 3031 3024 3017 3011 3005 3001 2996
3113 3115 3116 3116 3117 3119 3111 3112 3112 3110 3110 3109 3109 3109 3108 3108 3107 3107 3107 3106 3106 3105 3104 3101 3097 3093 3088 3084 3080 3075 3070 3064 3058 3051 3044 3037 3030 3024 3017 3011 3005 3000 2995 2991
3111 3112 3113 3113 3111 3108 3108 3108 3108 3106 3106 3105 3104 3104 3103 3102 3101 3103 3101 3101 3100 3099 3097 3094 3090 3085 3080 3076 3072 3067 3062 3056 3050 3044 3037 3029 3022 3017 3011 3005 2999 2994 2989 2985
3107 3109 3111 3110 3109 3106 3104 3104 3103 3102 3097 3099 3099 3099 3098 3098 3096 3097 3095 3094 3093 3091 3088 3085 3081 3077 3073 3069 3065 3060 3055 3049 3043 3036 3029 3023 3016 3010 3004 2997 2993 2987 2983 2979
3105 3105 3105 3105 3104 3100 3101 3100 3099 3100 3099 3095 3096 3095 3094 3092 3091 3089 3088 3087 3085 3082 3079 3075 3072 3069 3066 3062 3058 3054 3048 3042 3036 3029 3022 3016 3008 3002 2997 2991 2986 2982 2978 2975
3102 3102 3101 3100 3100 3097 3095 3095 3096 3096 3092 3092 3091 3090 3087 3086 3084 3081 3080 3078 3076 3073 3070 3068 3066 3063 3059 3055 3051 3046 3041 3035 3027 3020 3014 3008 3002 2995 2990 2985 2981 2977 2973 2970
3098 3097 3097 3098 3095 3092 3091 3092 3091 3090 3088 3086 3085 3083 3081 3079 3077 3074 3072 3070 3067 3064 3061 3060 3059 3057 3053 3049 3044 3038 3032 3025 3018 3011 3006 3000 2994 2988 2983 2979 2976 2972 2968 2965
3092 3092 3090 3090 3089 3089 3088 3085 3084 3083 3081 3079 3077 3075 3073 3071 3069 3066 3064 3061 3058 3056 3055 3053 3053 3050 3047 3042 3036 3029 3022 3016 3009 3003 2998 2992 2986 2981 2976 2973 2970 2967 2963 2959
3090 3088 3085 3083 3084 3082 3081 3079 3077 3075 3073 3071 3069 3067 3065 3062 3061 3059 3056 3054 3050 3049 3048 3048 3046 3043 3039 3033 3027 3019 3013 3007 3001 2996 2991 2985 2979 2974 2970 2967 2965 2962 2958 2954
3084 3083 3081 3077 3078 3074 3073 3072 3070 3067 3065 3063 3060 3058 3056 3055 3053 3049 3048 3044 3043 3042 3042 3042 3039 3034 3029 3024 3018 3011 3005 2999 2993 2988 2983 2978 2972 2968 2964 2961 2959 2957 2953 2949
Wind_Speed
8 11 13 12 10 8 5 8 12 12 10 14 14 9 5 14 12 14 14 15 16 17 18 16 16 13 12 12 13 15 17 18 20 17 18 18 18 17 18 24 25 30 31 35
8 7 7 6 3 1 5 7 9 13 19 15 11 10 12 16 15 15 15 16 17 18 17 16 14 14 13 13 11 13 15 16 14 16 15 15 19 23 25 26 29 34 33 36
9 5 5 3 3 2 4 6 10 17 16 9 9 7 10 16 14 13 11 9 8 3 2 4 6 6 8 12 14 15 15 18 19 18 20 21 21 21 24 29 33 37 40 42
7 5 5 5 4 4 9 8 9 16 16 9 13 6 10 12 12 10 7 6 6 8 1 5 4 5 12 17 15 16 19 18 17 16 21 23 25 29 32 37 43 47 50 51
8 7 6 5 5 6 7 5 6 7 10 12 12 5 15 15 16 14 13 12 11 5 2 5 5 13 18 12 8 13 13 14 20 23 29 31 34 38 42 46 48 50 52 54
7 9 8 8 8 10 12 7 7 5 6 3 12 10 15 26 26 22 18 14 10 7 7 8 3 9 7 11 13 13 14 19 23 30 35 38 40 42 46 50 48 52 51 50
8 8 10 9 9 9 11 10 2 1 0 4 8 10 15 16 26 22 15 13 9 8 7 10 15 18 10 15 16 19 23 25 30 36 38 41 43 45 46 48 50 50 50 49
7 5 9 12 11 6 9 14 5 6 3 4 7 5 7 12 21 18 12 12 13 11 14 18 14 16 17 19 19 21 25 28 33 39 45 45 45 46 48 49 49 49 49 48
8 5 9 11 12 8 5 5 9 3 3 2 4 6 6 11 22 22 21 20 18 17 22 19 19 21 22 23 23 23 23 28 35 43 45 44 46 47 48 49 48 46 47 48
7 6 9 7 8 8 5 7 2 3 3 2 4 6 9 16 22 23 25 21 19 19 20 20 22 24 25 27 25 27 28 32 37 42 44 44 43 44 45 44 44 44 44 44
11 8 10 10 5 10 8 3 2 2 1 5 1 5 8 13 14 15 19 20 20 21 21 23 26 26 29 28 28 31 34 36 41 42 42 42 43 43 43 42 43 43 44 43
15 8 14 12 9 8 7 5 4 3 3 3 2 7 8 12 20 22 22 22 22 22 24 26 29 30 28 29 30 32 37 41 39 39 40 42 44 45 45 45 46 46 44 42
14 8 9 5 8 11 9 8 7 6 6 7 2 5 7 7 11 21 24 23 22 25 25 26 28 26 29 31 35 37 39 33 36 39 42 44 45 46 47 48 48 46 43 40
15 9 13 13 4 9 11 12 11 9 6 7 16 16 14 13 13 18 21 24 27 26 26 25 26 27 30 37 39 32 31 35 38 41 43 45 46 48 49 49 47 44 41 38
15 10 18 11 9 9 10 11 13 16 16 16 19 20 16 18 18 21 24 27 29 28 26 26 27 32 39 40 34 34 35 37 40 41 44 46 47 48 49 48 45 43 39 34
15 9 12 15 13 13 13 14 17 20 21 23 24 25 20 18 19 22 24 26 28 28 27 27 33 38 39 34 36 34 36 38 40 43 45 46 48 49 48 46 44 41 36 32
15 15 9 8 14 15 16 19 20 23 24 22 25 20 17 17 18 19 20 22 25 26 27 31 37 37 34 35 33 34 37 39 41 44 46 49 49 48 46 44 42 37 33 28
12 13 11 6 8 1 17 17 16 16 16 21 22 20 19 19 19 18 19 20 24 26 29 33 34 34 35 32 33 35 38 41 44 46 48 49 48 46 44 41 38 34 30 27
12 13 9 6 12 16 14 16 17 18 20 23 23 20 19 20 18 20 20 19 23 27 31 35 34 33 30 31 34 36 39 43 45 47 48 47 45 44 42 37 35 32 29 26
16 16 16 10 5 5 10 12 12 18 28 25 22 19 17 18 27 24 19 23 25 29 33 35 33 29 29 31 34 37 41 44 46 48 46 43 43 44 40 36 32 30 27 25
11 14 19 21 15 13 18 19 18 13 21 12 12 16 24 29 27 26 25 25 27 30 32 31 29 27 29 32 35 40 43 45 47 46 42 41 43 43 39 35 29 27 25 23
14 8 12 12 11 12 16 19 18 17 16 22 23 25 30 27 28 32 27 26 32 31 31 27 25 27 30 34 39 42 44 46 46 43 39 40 42 39 35 31 26 25 24 24
16 19 15 14 13 17 22 23 22 21 27 28 30 30 28 28 33 28 28 35 35 30 26 24 24 27 32 37 41 43 45 46 43 40 38 40 40 34 32 26 24 26 26 26
20 18 23 25 25 23 24 26 28 29 31 31 30 30 30 35 29 28 31 32 34 24 24 21 25 30 35 40 41 44 45 44 41 39 37 39 36 33 29 24 26 30 27 25
16 20 25 28 27 27 25 27 28 30 31 30 31 32 36 30 29 30 30 36 29 22 21 21 29 35 38 39 41 43 43 42 39 37 36 37 34 30 26 22 24 30 26 25
22 23 24 25 20 23 26 26 28 30 30 30 32 31 29 28 29 34 33 30 21 19 19 27 34 38 37 39 40 41 41 39 36 35 35 34 31 28 25 22 26 27 25 24
Wind_Direction
147 147 148 161 177 178 171 203 233 226 215 215 223 251 250 199 197 224 243 247 252 254 261 260 259 264 275 274 279 282 296 296 303 313 325 325 318 307 302 299 297 299 294 295
172 140 152 142 127 121 231 263 270 211 211 216 224 234 218 203 214 234 248 257 254 258 263 276 274 266 268 273 289 289 287 290 303 322 324 313 302 298 299 300 299 303 303 305
182 173 147 153 199 220 241 173 161 162 162 184 200 170 186 205 224 236 238 230 229 197 121 320 290 272 281 290 296 301 314 322 327 321 316 307 300 300 304 307 309 309 310 308
172 193 194 230 255 261 213 187 167 172 176 157 178 142 177 193 203 197 190 167 161 161 236 313 283 349 349 340 341 340 334 329 318 318 316 306 304 310 310 309 309 309 309 310
171 191 208 238 255 242 201 174 164 170 191 172 185 158 192 188 191 189 174 167 178 171 17 262 2 4 332 318 331 343 339 324 319 322 325 325 323 320 318 318 313 309 310 310
190 201 214 226 227 215 209 169 146 174 195 197 216 212 208 205 212 197 185 181 199 204 223 246 40 13 338 304 307 323 322 319 324 330 332 327 321 315 312 313 310 309 310 308
167 197 214 197 188 206 201 191 119 23 177 220 211 220 239 232 219 211 204 201 207 225 250 307 318 308 310 311 309 311 324 326 325 329 321 315 312 312 313 313 312 311 311 310
165 173 180 192 196 206 207 206 203 200 186 210 185 234 237 234 217 198 207 216 237 250 272 299 301 306 306 304 306 311 318 322 321 319 318 316 315 315 313 312 312 313 313 312
174 169 187 194 211 203 207 205 214 134 134 156 213 252 250 205 193 202 214 229 242 259 286 293 303 299 298 311 305 305 310 312 316 316 313 311 310 311 313 313 314 315 314 311
199 156 181 178 197 213 214 167 179 184 135 271 249 253 224 191 200 204 221 238 248 274 282 288 291 297 293 299 294 289 295 302 309 312 309 309 312 316 317 317 316 314 313 312
224 210 180 174 185 163 161 183 206 174 182 160 219 254 236 231 226 236 242 240 253 268 272 278 275 275 275 276 280 283 308 309 317 310 312 317 319 320 320 319 318 318 319 318
211 208 177 194 195 200 204 214 233 236 227 216 220 272 243 227 226 238 236 241 252 261 269 272 265 263 263 275 293 302 303 320 313 313 318 322 323 323 323 324 325 325 323 319
202 202 160 177 221 224 220 228 237 242 247 239 172 264 290 276 237 228 238 247 257 273 278 268 260 265 280 291 290 307 320 312 317 321 323 324 324 324 325 326 326 325 324 321
204 222 213 201 205 201 223 237 246 240 230 251 243 274 287 289 263 250 257 259 262 273 275 265 265 277 283 286 297 322 317 319 322 323 323 324 325 325 324 326 328 329 325 321
212 227 220 224 231 215 233 247 252 254 270 256 279 281 284 279 274 267 270 265 269 272 265 267 275 279 286 300 320 315 318 321 322 323 323 324 323 324 326 329 330 328 322 314
222 229 231 232 236 238 250 259 264 265 265 263 269 281 289 286 281 276 279 274 271 267 269 277 283 293 312 313 311 317 319 320 322 323 323 323 324 327 327 329 329 326 321 318
223 227 235 238 248 256 267 267 268 272 270 270 268 296 282 286 289 293 291 282 271 271 280 292 301 310 305 307 311 314 317 321 323 324 324 325 326 326 327 329 329 325 320 314
234 234 230 245 244 308 261 269 272 265 261 278 279 279 283 289 285 282 286 286 277 281 289 297 302 303 303 306 312 318 322 325 325 326 325 323 323 325 326 326 327 323 319 313
242 236 228 229 234 263 260 271 280 278 277 278 278 274 279 285 282 293 300 290 282 286 296 300 301 300 305 312 317 320 324 324 324 322 322 321 320 322 323 323 325 322 319 314
246 242 236 233 239 221 275 275 271 277 269 284 278 272 279 282 293 304 287 287 289 291 300 298 301 302 309 313 316 321 321 321 321 320 319 319 318 321 322 319 321 322 319 315
266 256 244 250 252 266 273 279 278 254 291 297 287 272 294 293 301 300 296 288 285 297 298 300 303 304 311 313 316 319 318 318 318 316 317 317 319 320 318 317 318 320 316 312
267 254 249 246 247 266 274 272 270 294 287 302 296 290 299 297 300 299 291 286 288 291 300 298 293 305 311 314 315 315 315 315 316 316 317 318 319 319 317 314 315 318 314 311
248 259 259 254 264 280 298 298 296 286 294 301 298 297 292 289 299 293 288 296 298 297 293 285 300 307 311 310 311 312 314 316 317 317 317 318 320 319 316 310 315 319 312 309
271 275 271 278 281 288 288 292 293 294 294 292 288 284 282 293 289 282 287 289 291 287 282 298 307 310 308 308 311 313 315 318 316 315 317 319 319 318 313 301 304 315 312 308
273 278 281 286 292 294 290 287 285 285 287 287 285 279 285 283 283 284 286 289 281 274 289 313 311 308 308 312 314 315 317 317 316 315 317 318 318 317 308 301 300 309 310 308
287 287 287 294 298 289 292 292 290 290 290 286 284 285 284 284 286 271 274 279 260 288 319 313 309 308 312 313 316 317 319 318 317 316 316 318 317 316 310 304 298 304 307 310